FW2218 Weather Reports


Display with metric or nautical units.
time (UTC)temp
F
wind
direction
speed
MPH
gust
MPH
rain 1hr
in
rain 24hr
in
rain mn
in
humidity
%
barometer
mb
20260902213028 63 55 2.0 6.0 0.02 5.15 5.14 79 1002.7
20260902211607 63 69 2.0 4.0 0.01 5.14 5.13 76 1002.9
20260902210028 64 31 1.0 4.0 0.01 5.13 5.13 75 1002.9
20260902203031 65 9 1.0 4.0 0.01 5.13 5.13 72 1002.7
20260902201647 64 264 0.0 2.0 0.01 5.13 5.12 72 1002.7
20260902200030 65 233 2.0 5.0 0.00 5.12 5.12 70 1002.8
20260902194530 67 229 4.0 8.0 0.00 5.12 5.12 62 1002.6
20260902193038 70 237 6.0 13.0 0.00 5.12 5.12 53 1002.0
20260902191531 72 295 2.0 5.0 5.12 5.12 5.12 51 1001.6
20260902190144 72 350 2.0 6.0 5.12 5.12 5.12 49 1001.6
20260902183104 71 330 655.0 0.0 5.12 5.12 0.00 50 997.0
20260902181531 71 359 2.0 6.0 0.00 0.00 0.00 52 1002.2
20260902180031 69 334 3.0 6.0 0.00 0.00 0.00 56 1002.4
20260902173032 67 12 1.0 3.0 0.00 0.00 0.00 57 1003.0
20260902171535 68 298 1.0 4.0 0.00 0.00 0.00 58 1003.1
20260902170031 68 282 2.0 4.0 0.00 0.00 0.00 58 1003.3
20260902164530 68 338 1.0 4.0 0.00 0.00 0.00 57 1003.5
20260902163029 67 322 2.0 4.0 0.00 0.00 0.00 58 1003.6
20260902160028 65 292 0.0 1.0 0.00 0.00 0.00 62 1003.8
20260902154529 62 352 1.0 5.0 0.00 0.00 0.00 65 1004.0
20260902153144 62 4 2.0 4.0 0.00 0.00 0.00 66 1004.2
20260902151537 62 336 1.0 3.0 0.00 0.00 0.00 66 1004.3
20260902150144 61 196 1.0 5.0 0.00 0.00 0.00 67 1004.3
20260902144531 59 158 4.0 6.0 0.00 0.00 0.00 68 1004.4
20260902143033 59 159 3.0 7.0 0.00 0.00 0.00 69 1004.5
20260902141531 58 179 2.0 6.0 0.00 0.00 0.00 71 1004.5
20260902140106 57 213 2.0 5.0 0.00 0.00 0.00 72 1004.5
20260902134531 58 213 1.0 5.0 0.00 0.00 0.00 71 1004.5
20260902133144 58 166 2.0 5.0 0.00 0.00 0.00 70 1004.6
20260902131533 58 185 2.0 6.0 0.00 0.00 0.00 70 1004.8
20260902124532 59 207 2.0 4.0 0.00 0.00 0.00 70 1004.8
20260902123032 59 201 3.0 5.0 0.00 0.00 0.00 70 1004.9
20260902121647 59 214 2.0 6.0 0.00 0.00 0.00 70 1004.9
20260902120106 59 214 3.0 6.0 0.00 0.00 0.00 71 1004.9
20260902114530 59 211 3.0 7.0 0.00 0.00 0.00 72 1004.8
20260902113030 59 234 3.0 6.0 0.00 0.00 0.00 71 1004.8
20260902111530 60 239 3.0 8.0 0.00 0.00 0.00 70 1004.9
20260902110030 61 237 4.0 10.0 0.00 0.00 0.00 70 1004.8
20260902104530 60 239 5.0 12.0 0.00 0.00 0.00 70 1004.8
20260902103032 60 232 4.0 7.0 0.00 0.00 0.00 70 1004.8
20260902101607 60 242 4.0 11.0 0.00 0.00 0.00 70 1004.9
20260902100032 60 254 5.0 11.0 0.00 0.00 0.00 70 1004.9
20260902094530 60 250 5.0 11.0 0.00 0.00 0.00 70 1004.9
20260902093028 61 255 5.0 9.0 0.00 0.00 0.00 69 1004.9
20260902091532 61 258 6.0 14.0 0.00 0.00 0.00 69 1005.0
20260902090031 61 259 5.0 13.0 0.00 0.00 0.00 69 1005.1
20260902083033 62 256 6.0 14.0 0.00 0.00 0.00 68 1004.9
20260902081530 61 267 8.0 17.0 0.00 0.00 0.00 68 1005.0
20260902080032 61 268 7.0 15.0 0.00 0.00 0.00 69 1005.0
20260902074529 62 269 5.0 10.0 0.00 0.00 0.00 68 1005.1
20260902073030 63 260 5.0 11.0 0.00 0.00 0.00 66 1005.3
20260902071533 63 273 7.0 15.0 0.00 0.00 0.00 66 1005.3
20260902070107 64 256 7.0 14.0 0.00 0.00 0.00 65 1005.5
20260902063107 64 265 9.0 20.0 0.00 0.00 0.00 65 1005.2
20260902061527 63 263 7.0 12.0 0.00 0.00 0.00 66 1005.1
20260902060032 63 266 7.0 15.0 0.00 0.00 0.00 67 1005.1
20260902054529 63 259 5.0 11.0 0.00 0.00 0.00 69 1005.4
20260902051605 65 274 11.0 21.0 0.00 0.00 0.00 62 1004.6
20260902044607 66 275 11.0 23.0 0.00 0.00 0.00 58 1004.7
20260902043029 66 273 13.0 24.0 0.00 0.00 0.00 58 1004.2
20260902041605 66 270 11.0 24.0 0.00 0.00 0.00 59 1004.1
20260902040029 66 271 10.0 21.0 0.00 0.00 0.00 59 1004.1
20260902034531 66 270 10.0 22.0 0.00 0.00 0.00 59 1004.0
20260902033032 67 273 13.0 28.0 0.00 0.00 0.00 58 1003.6
20260902031531 67 276 15.0 24.0 0.00 0.00 0.00 57 1003.4
20260902030031 67 276 12.0 24.0 0.00 0.00 0.00 57 1003.6
20260902024531 67 273 11.0 23.0 0.00 0.00 0.00 56 1003.8
20260902021533 68 270 10.0 21.0 0.00 0.00 0.00 55 1003.3
20260902020030 68 275 13.0 25.0 0.00 0.00 0.00 54 1002.9
20260902014532 68 276 13.0 23.0 0.00 0.00 0.00 54 1002.8
20260902011531 69 277 14.0 26.0 0.00 0.00 0.00 54 1002.3
20260902004532 71 274 14.0 28.0 0.00 0.00 0.00 52 1002.0
20260902003034 70 269 13.0 24.0 0.00 0.00 0.00 52 1002.2
20260902001542 71 273 15.0 25.0 0.00 0.00 0.00 51 1002.2
20260902000108 70 273 13.0 25.0 0.00 0.00 0.00 52 1002.2
20260901234531 71 275 14.0 25.0 0.00 0.00 0.00 52 1002.2
20260901233106 71 272 13.0 23.0 0.00 0.00 0.00 52 1002.3
20260901231532 71 277 13.0 24.0 0.00 0.00 0.00 53 1002.4
20260901230031 70 273 13.0 23.0 0.00 0.00 0.00 52 1002.3
20260901224532 71 278 14.0 27.0 0.00 0.00 0.00 50 1002.2
20260901223030 73 272 13.0 24.0 0.00 0.00 0.00 49 1002.2
20260901221526 74 271 13.0 24.0 0.00 0.00 0.00 48 1002.2
20260901214531 75 278 12.0 26.0 0.00 0.00 0.00 47 1002.2